Location: An Tulaigh
(53.1928°N, 8.1647°W)
Time: 03:39:12
(UTC+00:00)

Cosmos 1891 Rocket - Pass Details

Date: 15 May 2026
Orbit: 933 x 1018 km, 82.9° (Epoch: 8 June)

Event Time Altitude Azimuth Distance (km) Brightness Sun altitude
Exits shadow 21:54:08 - 188° (S) 3,510 7.0 -10.4°
Reaches altitude 10° 21:56:21 10° 189° (S) 2,667 6.4 -10.6°
Maximum altitude 22:02:27 89° 280° (W) 947 4.5 -11.1°
Drops below altitude 10° 22:08:31 10° 11° (N) 2,655 7.5 -11.7°
Sets 22:11:00 0° 11° (NNE) 3,602 8.2 -11.9°
